| time (UTC) | temp F | wind direction | speed MPH | gust MPH | rain 1hr in | rain 24hr in | rain mn in | humidity % | barometer mb |
| 20260503203315 | 72 | 315 | 3.0 | 4.0 | 0.00 | 0.00 | 0.00 | 32 | 1044.0 |
| 20260503202812 | 72 | 297 | 8.0 | 10.0 | 0.00 | 0.00 | 0.00 | 31 | 1043.9 |
| 20260503202310 | 72 | 358 | 2.0 | 7.0 | 0.00 | 0.00 | 0.00 | 32 | 1044.1 |
| 20260503201808 | 72 | 322 | 5.0 | 10.0 | 0.00 | 0.00 | 0.00 | 30 | 1044.3 |
| 20260503201305 | 72 | 269 | 8.0 | 9.0 | 0.00 | 0.00 | 0.00 | 28 | 1044.2 |
| 20260503200802 | 71 | 309 | 3.0 | 11.0 | 0.00 | 0.00 | 0.00 | 34 | 1044.2 |
| 20260503200258 | 71 | 300 | 8.0 | 11.0 | 0.00 | 0.00 | 0.00 | 34 | 1044.2 |
| 20260503195755 | 71 | 281 | 5.0 | 9.0 | 0.00 | 0.00 | 0.00 | 32 | 1044.2 |
| 20260503195252 | 72 | 284 | 5.0 | 10.0 | 0.00 | 0.00 | 0.00 | 31 | 1044.3 |
| 20260503194749 | 72 | 20 | 2.0 | 4.0 | 0.00 | 0.00 | 0.00 | 32 | 1044.3 |
| 20260503194245 | 72 | 27 | 3.0 | 4.0 | 0.00 | 0.00 | 0.00 | 31 | 1044.4 |
| 20260503193741 | 71 | 85 | 1.0 | 4.0 | 0.00 | 0.00 | 0.00 | 30 | 1044.4 |
| 20260503193237 | 72 | 330 | 3.0 | 9.0 | 0.00 | 0.00 | 0.00 | 31 | 1044.5 |
| 20260503192733 | 73 | 32 | 2.0 | 6.0 | 0.00 | 0.00 | 0.00 | 29 | 1044.4 |
| 20260503192228 | 71 | 294 | 1.0 | 3.0 | 0.00 | 0.00 | 0.00 | 32 | 1044.4 |
| 20260503191726 | 72 | 353 | 8.0 | 10.0 | 0.00 | 0.00 | 0.00 | 28 | 1044.5 |
| 20260503191222 | 72 | 324 | 3.0 | 6.0 | 0.00 | 0.00 | 0.00 | 30 | 1044.6 |
| 20260503190720 | 71 | 345 | 3.0 | 6.0 | 0.00 | 0.00 | 0.00 | 30 | 1044.6 |
| 20260503190216 | 71 | 25 | 4.0 | 8.0 | 0.00 | 0.00 | 0.00 | 31 | 1044.6 |
| 20260503185714 | 71 | 195 | 3.0 | 7.0 | 0.00 | 0.00 | 0.00 | 33 | 1044.6 |
| 20260503185209 | 71 | 320 | 4.0 | 8.0 | 0.00 | 0.00 | 0.00 | 33 | 1044.3 |
| 20260503184703 | 71 | 343 | 4.0 | 7.0 | 0.00 | 0.00 | 0.00 | 35 | 1044.4 |
| 20260503184200 | 70 | 18 | 4.0 | 7.0 | 0.00 | 0.00 | 0.00 | 35 | 1044.4 |
| 20260503183656 | 71 | 330 | 2.0 | 8.0 | 0.00 | 0.00 | 0.00 | 34 | 1044.5 |
| 20260503183154 | 71 | 17 | 5.0 | 7.0 | 0.00 | 0.00 | 0.00 | 34 | 1044.5 |
| 20260503182652 | 71 | 278 | 8.0 | 11.0 | 0.00 | 0.00 | 0.00 | 36 | 1044.6 |
| 20260503182150 | 70 | 334 | 6.0 | 9.0 | 0.00 | 0.00 | 0.00 | 34 | 1044.7 |
| 20260503181646 | 70 | 318 | 4.0 | 9.0 | 0.00 | 0.00 | 0.00 | 36 | 1044.5 |
| 20260503181144 | 69 | 304 | 2.0 | 6.0 | 0.00 | 0.00 | 0.00 | 37 | 1044.6 |
| 20260503180640 | 69 | 258 | 4.0 | 6.0 | 0.00 | 0.00 | 0.00 | 39 | 1044.5 |
| 20260503180138 | 70 | 349 | 2.0 | 7.0 | 0.00 | 0.00 | 0.00 | 37 | 1044.8 |
| 20260503175635 | 69 | 189 | 4.0 | 8.0 | 0.00 | 0.00 | 0.00 | 40 | 1044.8 |
| 20260503175132 | 69 | 336 | 5.0 | 11.0 | 0.00 | 0.00 | 0.00 | 37 | 1044.8 |
| 20260503174629 | 69 | 310 | 4.0 | 6.0 | 0.00 | 0.00 | 0.00 | 39 | 1044.8 |
| 20260503174126 | 68 | 347 | 4.0 | 7.0 | 0.00 | 0.00 | 0.00 | 40 | 1044.6 |
| 20260503173621 | 69 | 331 | 5.0 | 7.0 | 0.00 | 0.00 | 0.00 | 41 | 1044.9 |
| 20260503173117 | 68 | 348 | 4.0 | 7.0 | 0.00 | 0.00 | 0.00 | 39 | 1044.7 |
| 20260503172614 | 68 | 307 | 6.0 | 9.0 | 0.00 | 0.00 | 0.00 | 40 | 1044.7 |
| 20260503172112 | 68 | 349 | 3.0 | 7.0 | 0.00 | 0.00 | 0.00 | 40 | 1044.8 |
| 20260503171608 | 68 | 320 | 4.0 | 10.0 | 0.00 | 0.00 | 0.00 | 41 | 1044.8 |
| 20260503171106 | 68 | 266 | 4.0 | 6.0 | 0.00 | 0.00 | 0.00 | 42 | 1044.7 |
| 20260503170603 | 67 | 337 | 4.0 | 10.0 | 0.00 | 0.00 | 0.00 | 42 | 1044.7 |
| 20260503150954 | 62 | 325 | 4.0 | 6.0 | 0.00 | 0.00 | 0.00 | 50 | 1044.6 |
| 20260503150451 | 61 | 355 | 4.0 | 7.0 | 0.00 | 0.00 | 0.00 | 48 | 1044.4 |
| 20260503131343 | 54 | 256 | 5.0 | 8.0 | 0.00 | 0.00 | 0.00 | 53 | 1044.7 |
| 20260503130841 | 54 | 160 | 3.0 | 6.0 | 0.00 | 0.00 | 0.00 | 53 | 1044.9 |
| 20260503130338 | 54 | 234 | 7.0 | 11.0 | 0.00 | 0.00 | 0.00 | 54 | 1044.9 |
| 20260503110732 | 50 | 186 | 3.0 | 6.0 | 0.00 | 0.00 | 0.00 | 56 | 1045.0 |
| 20260503110229 | 50 | 240 | 3.0 | 10.0 | 0.00 | 0.00 | 0.00 | 55 | 1045.0 |
| 20260503100155 | 53 | 162 | 5.0 | 13.0 | 0.00 | 0.00 | 0.00 | 52 | 1045.3 |
| 20260503090114 | 54 | 193 | 5.0 | 8.0 | 0.00 | 0.00 | 0.00 | 54 | 1046.8 |
| 20260503081550 | 54 | 182 | 2.0 | 6.0 | 0.00 | 0.00 | 0.00 | 52 | 1048.0 |
| 20260503081048 | 54 | 211 | 4.0 | 10.0 | 0.00 | 0.00 | 0.00 | 48 | 1048.1 |
| 20260503080544 | 54 | 185 | 4.0 | 8.0 | 0.00 | 0.00 | 0.00 | 50 | 1048.1 |
| 20260503072517 | 55 | 159 | 3.0 | 6.0 | 0.00 | 0.00 | 0.00 | 46 | 1049.3 |
| 20260503072014 | 55 | 238 | 4.0 | 9.0 | 0.00 | 0.00 | 0.00 | 45 | 1049.3 |
| 20260503071511 | 55 | 215 | 4.0 | 7.0 | 0.00 | 0.00 | 0.00 | 45 | 1049.4 |
| 20260503071008 | 56 | 214 | 8.0 | 10.0 | 0.00 | 0.00 | 0.00 | 43 | 1049.2 |
| 20260503070504 | 57 | 206 | 4.0 | 8.0 | 0.00 | 0.00 | 0.00 | 42 | 1048.9 |
| 20260503054923 | 55 | 189 | 3.0 | 8.0 | 0.00 | 0.00 | 0.00 | 44 | 1049.4 |
| 20260503054419 | 55 | 204 | 5.0 | 7.0 | 0.00 | 0.00 | 0.00 | 45 | 1049.4 |
| 20260503053917 | 55 | 228 | 3.0 | 7.0 | 0.00 | 0.00 | 0.00 | 44 | 1049.5 |
| 20260503053414 | 55 | 212 | 2.0 | 4.0 | 0.00 | 0.00 | 0.00 | 45 | 1049.7 |
| 20260503052910 | 54 | 259 | 4.0 | 6.0 | 0.00 | 0.00 | 0.00 | 45 | 1049.5 |
| 20260503052408 | 54 | 216 | 4.0 | 6.0 | 0.00 | 0.00 | 0.00 | 47 | 1049.7 |
| 20260503051904 | 54 | 178 | 2.0 | 3.0 | 0.00 | 0.00 | 0.00 | 46 | 1049.7 |
| 20260503051400 | 54 | 157 | 3.0 | 6.0 | 0.00 | 0.00 | 0.00 | 47 | 1049.5 |
| 20260503050857 | 53 | 281 | 4.0 | 8.0 | 0.00 | 0.00 | 0.00 | 47 | 1049.4 |
| 20260503050353 | 53 | 218 | 4.0 | 6.0 | 0.00 | 0.00 | 0.00 | 47 | 1049.4 |
| 20260503045851 | 53 | 221 | 5.0 | 8.0 | 0.00 | 0.00 | 0.00 | 46 | 1049.6 |
| 20260503045349 | 53 | 198 | 3.0 | 6.0 | 0.00 | 0.00 | 0.00 | 47 | 1049.4 |
| 20260503044845 | 53 | 212 | 6.0 | 7.0 | 0.00 | 0.00 | 0.00 | 46 | 1049.4 |
| 20260503044342 | 53 | 217 | 4.0 | 9.0 | 0.00 | 0.00 | 0.00 | 46 | 1049.5 |
| 20260503043839 | 54 | 203 | 3.0 | 7.0 | 0.00 | 0.00 | 0.00 | 45 | 1049.7 |
| 20260503043336 | 54 | 208 | 2.0 | 6.0 | 0.00 | 0.00 | 0.00 | 45 | 1049.6 |
| 20260503042832 | 54 | 235 | 4.0 | 10.0 | 0.00 | 0.00 | 0.00 | 45 | 1049.7 |
| 20260503042329 | 54 | 233 | 3.0 | 6.0 | 0.00 | 0.00 | 0.00 | 45 | 1049.8 |
| 20260503041825 | 54 | 212 | 2.0 | 7.0 | 0.00 | 0.00 | 0.00 | 45 | 1049.6 |
| 20260503041322 | 54 | 221 | 2.0 | 7.0 | 0.00 | 0.00 | 0.00 | 45 | 1049.7 |
| 20260503040820 | 54 | 210 | 4.0 | 4.0 | 0.00 | 0.00 | 0.00 | 45 | 1049.8 |
| 20260503040317 | 54 | 173 | 2.0 | 4.0 | 0.00 | 0.00 | 0.00 | 44 | 1049.6 |
| 20260503035814 | 54 | 203 | 4.0 | 7.0 | 0.00 | 0.00 | 0.00 | 44 | 1049.6 |
| 20260503035312 | 55 | 206 | 2.0 | 4.0 | 0.00 | 0.00 | 0.00 | 44 | 1049.6 |
| 20260503034809 | 55 | 221 | 2.0 | 4.0 | 0.00 | 0.00 | 0.00 | 44 | 1049.9 |
| 20260503034306 | 55 | 187 | 3.0 | 4.0 | 0.00 | 0.00 | 0.00 | 44 | 1049.9 |
| 20260503033803 | 55 | 218 | 4.0 | 8.0 | 0.00 | 0.00 | 0.00 | 44 | 1050.0 |
| 20260503033300 | 55 | 220 | 2.0 | 4.0 | 0.00 | 0.00 | 0.00 | 44 | 1050.3 |
| 20260503032758 | 55 | 197 | 4.0 | 4.0 | 0.00 | 0.00 | 0.00 | 43 | 1050.1 |
| 20260503032257 | 56 | 176 | 2.0 | 6.0 | 0.00 | 0.00 | 0.00 | 43 | 1050.1 |
| 20260503031753 | 56 | 200 | 2.0 | 6.0 | 0.00 | 0.00 | 0.00 | 43 | 1050.2 |
| 20260503031252 | 56 | 211 | 4.0 | 6.0 | 0.00 | 0.00 | 0.00 | 42 | 1050.3 |
| 20260503030747 | 56 | 184 | 5.0 | 7.0 | 0.00 | 0.00 | 0.00 | 42 | 1050.5 |
| 20260503030244 | 57 | 189 | 3.0 | 7.0 | 0.00 | 0.00 | 0.00 | 42 | 1050.5 |
| 20260503025741 | 57 | 199 | 3.0 | 6.0 | 0.00 | 0.00 | 0.00 | 42 | 1050.6 |
| 20260503025239 | 57 | 215 | 6.0 | 8.0 | 0.00 | 0.00 | 0.00 | 41 | 1050.6 |
| 20260503024735 | 57 | 197 | 1.0 | 6.0 | 0.00 | 0.00 | 0.00 | 42 | 1050.5 |
| 20260503024232 | 57 | 241 | 3.0 | 6.0 | 0.00 | 0.00 | 0.00 | 42 | 1050.7 |
| 20260503023729 | 57 | 205 | 2.0 | 4.0 | 0.00 | 0.00 | 0.00 | 43 | 1050.6 |
| 20260503023226 | 57 | 205 | 2.0 | 3.0 | 0.00 | 0.00 | 0.00 | 42 | 1050.7 |
| 20260503022722 | 57 | 209 | 3.0 | 3.0 | 0.00 | 0.00 | 0.00 | 42 | 1050.8 |
| 20260503022222 | 57 | 200 | 2.0 | 4.0 | 0.00 | 0.00 | 0.00 | 42 | 1050.8 |
| 20260503021719 | 58 | 184 | 1.0 | 7.0 | 0.00 | 0.00 | 0.00 | 41 | 1050.7 |
| 20260503021215 | 57 | 190 | 2.0 | 3.0 | 0.00 | 0.00 | 0.00 | 41 | 1050.9 |
| 20260503020713 | 57 | 191 | 1.0 | 2.0 | 0.00 | 0.00 | 0.00 | 41 | 1050.7 |
| 20260503020210 | 57 | 190 | 2.0 | 2.0 | 0.00 | 0.00 | 0.00 | 42 | 1050.7 |
| 20260503015707 | 57 | 181 | 0.0 | 1.0 | 0.00 | 0.00 | 0.00 | 42 | 1050.7 |
| 20260503015204 | 58 | 217 | 0.0 | 1.0 | 0.00 | 0.00 | 0.00 | 42 | 1050.8 |
| 20260503014655 | 58 | 209 | 1.0 | 2.0 | 0.00 | 0.00 | 0.00 | 42 | 1051.0 |
| 20260503014153 | 58 | 189 | 1.0 | 3.0 | 0.00 | 0.00 | 0.00 | 41 | 1050.9 |
| 20260503013649 | 58 | 183 | 1.0 | 3.0 | 0.00 | 0.00 | 0.00 | 40 | 1051.0 |
| 20260503013148 | 59 | 184 | 0.0 | 2.0 | 0.00 | 0.00 | 0.00 | 41 | 1050.7 |
| 20260503012644 | 59 | 213 | 1.0 | 1.0 | 0.00 | 0.00 | 0.00 | 40 | 1051.1 |
| 20260503012141 | 59 | 207 | 1.0 | 1.0 | 0.00 | 0.00 | 0.00 | 40 | 1050.9 |
| 20260503011637 | 59 | 180 | 0.0 | 1.0 | 0.00 | 0.00 | 0.00 | 41 | 1050.9 |
| 20260503011135 | 59 | 189 | 1.0 | 1.0 | 0.00 | 0.00 | 0.00 | 39 | 1051.0 |
| 20260503010631 | 59 | 210 | 1.0 | 2.0 | 0.00 | 0.00 | 0.00 | 38 | 1050.9 |
| 20260503010129 | 60 | 205 | 1.0 | 3.0 | 0.00 | 0.00 | 0.00 | 38 | 1050.9 |
| 20260503005626 | 60 | 198 | 0.0 | 1.0 | 0.00 | 0.00 | 0.00 | 39 | 1051.0 |
| 20260503005123 | 60 | 241 | 2.0 | 2.0 | 0.00 | 0.00 | 0.00 | 37 | 1050.9 |
| 20260503004619 | 60 | 263 | 2.0 | 3.0 | 0.00 | 0.00 | 0.00 | 36 | 1051.0 |
| 20260503004117 | 60 | 209 | 2.0 | 3.0 | 0.00 | 0.00 | 0.00 | 36 | 1051.0 |
| 20260503003614 | 61 | 209 | 2.0 | 4.0 | 0.00 | 0.00 | 0.00 | 36 | 1051.1 |
| 20260503003111 | 61 | 216 | 1.0 | 4.0 | 0.00 | 0.00 | 0.00 | 36 | 1051.0 |
| 20260503002608 | 61 | 278 | 2.0 | 4.0 | 0.00 | 0.00 | 0.00 | 35 | 1051.1 |
| 20260503002105 | 61 | 215 | 3.0 | 4.0 | 0.00 | 0.00 | 0.00 | 36 | 1051.3 |
| 20260503001601 | 61 | 211 | 2.0 | 3.0 | 0.00 | 0.00 | 0.00 | 35 | 1051.3 |
| 20260503001058 | 62 | 203 | 1.0 | 6.0 | 0.00 | 0.00 | 0.00 | 35 | 1051.3 |
| 20260503000555 | 62 | 266 | 5.0 | 6.0 | 0.00 | 0.00 | 0.00 | 34 | 1051.3 |
| 20260503000052 | 62 | 260 | 3.0 | 4.0 | 0.00 | 0.00 | 0.00 | 34 | 1051.3 |
| 20260502235548 | 62 | 265 | 4.0 | 9.0 | 0.00 | 0.00 | 0.00 | 34 | 1051.6 |
| 20260502235046 | 62 | 191 | 3.0 | 6.0 | 0.00 | 0.00 | 0.00 | 33 | 1051.4 |
| 20260502234542 | 62 | 187 | 6.0 | 8.0 | 0.00 | 0.00 | 0.00 | 33 | 1051.4 |
| 20260502234040 | 63 | 194 | 4.0 | 8.0 | 0.00 | 0.00 | 0.00 | 33 | 1051.5 |
| 20260502233540 | 63 | 226 | 2.0 | 4.0 | 0.00 | 0.00 | 0.00 | 33 | 1051.4 |
| 20260502233037 | 63 | 185 | 3.0 | 4.0 | 0.00 | 0.00 | 0.00 | 32 | 1051.4 |
| 20260502232533 | 63 | 239 | 2.0 | 6.0 | 0.00 | 0.00 | 0.00 | 33 | 1051.6 |
| 20260502232031 | 63 | 252 | 2.0 | 7.0 | 0.00 | 0.00 | 0.00 | 33 | 1051.6 |
| 20260502231528 | 63 | 283 | 5.0 | 8.0 | 0.00 | 0.00 | 0.00 | 32 | 1051.6 |
| 20260502231026 | 63 | 267 | 4.0 | 7.0 | 0.00 | 0.00 | 0.00 | 32 | 1051.7 |
| 20260502230524 | 64 | 252 | 5.0 | 6.0 | 0.00 | 0.00 | 0.00 | 32 | 1051.8 |
| 20260502230022 | 63 | 311 | 2.0 | 6.0 | 0.00 | 0.00 | 0.00 | 33 | 1051.9 |
| 20260502225522 | 63 | 289 | 4.0 | 8.0 | 0.00 | 0.00 | 0.00 | 33 | 1051.9 |
| 20260502225020 | 63 | 208 | 5.0 | 7.0 | 0.00 | 0.00 | 0.00 | 31 | 1051.9 |
| 20260502224516 | 64 | 206 | 4.0 | 6.0 | 0.00 | 0.00 | 0.00 | 31 | 1051.9 |
| 20260502224013 | 64 | 232 | 2.0 | 7.0 | 0.00 | 0.00 | 0.00 | 34 | 1051.9 |
| 20260502223511 | 64 | 266 | 4.0 | 7.0 | 0.00 | 0.00 | 0.00 | 34 | 1052.0 |
| 20260502223009 | 64 | 285 | 4.0 | 6.0 | 0.00 | 0.00 | 0.00 | 31 | 1052.0 |
| 20260502222506 | 63 | 268 | 3.0 | 4.0 | 0.00 | 0.00 | 0.00 | 32 | 1052.3 |
| 20260502222002 | 63 | 186 | 3.0 | 7.0 | 0.00 | 0.00 | 0.00 | 31 | 1052.4 |
| 20260502221458 | 63 | 290 | 3.0 | 6.0 | 0.00 | 0.00 | 0.00 | 32 | 1052.5 |
| 20260502220955 | 63 | 274 | 3.0 | 7.0 | 0.00 | 0.00 | 0.00 | 33 | 1052.4 |
| 20260502220451 | 63 | 240 | 1.0 | 10.0 | 0.00 | 0.00 | 0.00 | 34 | 1052.4 |
| 20260502215948 | 63 | 211 | 4.0 | 7.0 | 0.00 | 0.00 | 0.00 | 32 | 1052.4 |
| 20260502215445 | 63 | 292 | 2.0 | 3.0 | 0.00 | 0.00 | 0.00 | 31 | 1052.4 |
| 20260502214942 | 63 | 321 | 5.0 | 7.0 | 0.00 | 0.00 | 0.00 | 32 | 1052.6 |
| 20260502214439 | 64 | 271 | 1.0 | 4.0 | 0.00 | 0.00 | 0.00 | 32 | 1052.7 |
| 20260502213936 | 63 | 287 | 2.0 | 4.0 | 0.00 | 0.00 | 0.00 | 31 | 1052.9 |
| 20260502213432 | 63 | 222 | 7.0 | 8.0 | 0.00 | 0.00 | 0.00 | 32 | 1052.8 |
| 20260502212931 | 63 | 250 | 4.0 | 9.0 | 0.00 | 0.00 | 0.00 | 32 | 1052.9 |
| 20260502212430 | 63 | 276 | 3.0 | 4.0 | 0.00 | 0.00 | 0.00 | 37 | 1052.9 |
| 20260502211927 | 63 | 223 | 2.0 | 6.0 | 0.00 | 0.00 | 0.00 | 31 | 1053.0 |
| 20260502211422 | 63 | 285 | 5.0 | 7.0 | 0.00 | 0.00 | 0.00 | 32 | 1053.1 |
| 20260502210920 | 62 | 250 | 4.0 | 7.0 | 0.00 | 0.00 | 0.00 | 33 | 1053.2 |
| 20260502210417 | 62 | 188 | 4.0 | 9.0 | 0.00 | 0.00 | 0.00 | 34 | 1053.2 |
| 20260502205914 | 62 | 14 | 4.0 | 4.0 | 0.00 | 0.00 | 0.00 | 31 | 1053.3 |
| 20260502205410 | 61 | 285 | 7.0 | 9.0 | 0.00 | 0.00 | 0.00 | 33 | 1053.4 |
| 20260502204907 | 62 | 286 | 3.0 | 16.0 | 0.00 | 0.00 | 0.00 | 34 | 1053.1 |
| 20260502204404 | 63 | 275 | 3.0 | 4.0 | 0.00 | 0.00 | 0.00 | 32 | 1053.4 |
| 20260502203902 | 62 | 213 | 1.0 | 1.0 | 0.00 | 0.00 | 0.00 | 36 | 1053.4 |